Regional Weather Roundup
Issued by NWS Green Bay, WI

Home | Current Version | Previous Version | Text Only | Print | Product List | Glossary On
Versions: 1 2 3 4 5 6 7 8 9 10 11 12 13 14 15 16 17 18 19 20 21 22 23 24 25 26 27 28 29 30 31 32 33 34 35 36 37 38 39 40 41 42 43 44 45 46 47 48 49 50
000
ASUS43 KGRB 210211
RWRGRB

NORTH-CENTRAL AND NORTHEAST WISCONSIN REGIONAL WEATHER ROUNDUP
NATIONAL WEATHER SERVICE GREEN BAY WI
800 PM CST TUE FEB 20 2018

WIZ005-009-010>012-018-019-210300-
NORTH CENTRAL WISCONSIN

CITY           SKY/WX    TMP DP  RH WIND       PRES   REMARKS
IRONWOOD       FLURRIES  15  11  83 W14       30.06R WCI   0
MANITOWISH WTR FLURRIES  17  17 100 W9        30.02R WCI   6
ARBOR VITAE    CLOUDY    22  19  91 NW8       30.01R
EAGLE RIVER    CLOUDY    21  19  93 W10       29.99R WCI   9
LAND O LAKES   CLOUDY    20  18  91 W10       30.00R WCI   9
RHINELANDER    CLOUDY    21  18  88 W12       30.01R WCI   9
PHILLIPS       CLOUDY    17  14  90 NW7       30.06R WCI   7
ANTIGO         CLOUDY    22  21  94 W9        30.02R
TOMAHAWK       CLOUDY    19  17  88 W9G16     30.05R WCI   9
MERRILL        CLOUDY    22  19  89 W9        30.06R
$$

WIZ013-073-210300-
NORTHEAST WISCONSIN

CITY           SKY/WX    TMP DP  RH WIND       PRES   REMARKS
IRON MOUNTAIN  CLOUDY    26  21  81 NW12      29.97R
MARINETTE      CLOUDY    32  30  92 W7        30.02R
OCONTO         CLOUDY    31  27  84 W12G18    30.03R
$$

WIZ017-030-035>037-045-210300-
CENTRAL WISCONSIN

CITY           SKY/WX    TMP DP  RH WIND       PRES   REMARKS
MEDFORD        CLOUDY    17  14  86 W12G20    30.07R WCI   5
WAUSAU         CLOUDY    22  19  89 W16       30.05R WCI   8
MOSINEE        CLOUDY    21  19  93 W12       30.07R WCI   9
MARSHFIELD     CLOUDY    20  16  84 NW15G23   30.08R WCI   6
WISC RAPIDS    CLOUDY    23  18  81 NW10G20   30.11R
STEVENS POINT  CLOUDY    22  19  91 W7        30.09R
WAUPACA        CLOUDY    28  22  77 W12G17    30.09R
SHAWANO        CLOUDY    29  24  82 W7G17     30.06R
CLINTONVILLE   CLOUDY    27  22  79 W13G18    30.06R
WAUTOMA        CLOUDY    26  21  81 W16G24    30.10R
$$

WIZ038-039-048-051-210300-
FOX VALLEY

CITY           SKY/WX    TMP DP  RH WIND       PRES   REMARKS
NWS GREEN BAY  CLOUDY    30  23  75 W18       30.06R
APPLETON       CLOUDY    28  21  74 W17       30.05R
OSHKOSH        CLOUDY    28  24  85 W15G21    30.07R
FOND DU LAC    CLOUDY    30  24  78 W16G23    30.06S
$$

WIZ022-050-052-210300-
EAST CENTRAL WISCONSIN

CITY           SKY/WX    TMP DP  RH WIND       PRES   REMARKS
EPHRAIM        CLOUDY    32  31  96 W6        29.99R
WASHINGTON ISL NOT AVBL
STURGEON BAY   CLOUDY    32  29  88 W14G20    30.02R
MANITOWOC      CLOUDY    32  28  85 W16       30.04R
SHEBOYGAN      CLOUDY    32  29  88 W15G23    30.04R
$$

LMZ563-521-522-541>543-210300-
LAKESHORE

STATION/POSITION TIME  TEMP    WIND        PRES    VSBY  WAVE
                       AIR SEA DIR/SP/G                  HT/PER
                 (UTC) (F)     (DEG/KT/KT) (MB)    (MI)  (FT/S)
KEWAUNEE LKSHORE 0148   33     290/  7/ 11 1015.9R
MENOMINEE LKSHOR 0148   33     300/  8/ 12 1015.8R
$$




USA.gov is the U.S. government's official web portal to all federal, state and local government web resources and services.